User: anonymous   Login
Location: Unspecified
(51.0000°N, 12.0000°E)
Time: 22:16:10
(UTC+01:00)
Language:

XW-2F - Orbit

View from above orbital plane
View from above orbital plane
View from above satellite
View from above satellite

Ground track
Ground track

The orbit data is extracted from the following two-line orbital elements,

1 40910U 15049M   18343.53306510  .00001113  00000-0  59711-4 0  9998
2 40910  97.4591 345.1919 0016427 130.1872 347.2684 15.16900310178034
Epoch (UTC): 09 December 2018 12:47:36
Eccentricity: 0.0016427
inclination: 97.4591°
perigee height: 504 km
apogee height: 526 km
right ascension of ascending node: 345.1919°
argument of perigee: 130.1872°
revolutions per day: 15.16900310
mean anomaly at epoch: 347.2684°
orbit number at epoch: 17803

The dashed part of the orbit path shows where the satellite is in the earth's shadow,  

DLR